TIME,DELAY(SENSOR),PRES,OXYGEN,RAWTEMP,T(OPTODE),TCPHASE,FLUOR,BETA(BETA700),BETA(BETA412),BETA(BETA440),CDOM,C(CSC),ED(ED412.40),ED(ED444.00),ED(ED489.70),ED(ED554.30),LU(LU411.80),LU(LU443.40),LU(LU489.60),LU(LU554.10),COMP,TILTX,TILTY,CHECK
1341545576,5808,896.7000122070312000,44.2611503601074200,660.4840087890625000,4.6120381355285645,54.3712387084960940,53,101,89,78,81,15394,2147756525,2147420946,2148006884,2147878025,2147641718,2147061760,2148261531,2147201810,2917,5,13,3601
1341549172,5807,965.8900146484375000,46.7475814819335940,666.3812866210938000,4.4176621437072750,54.0812988281250000,53,99,88,79,81,15393,2147757522,2147420169,2148004635,2147876434,2147643017,2147060397,2148257581,2147202514,325,5,13,40316
1341552772,5809,977.2700195312500000,47.3628501892089840,669.7052001953125000,4.3079361915588380,54.0330009460449200,53,100,89,79,81,15392,2147758774,2147418358,2148005714,2147874413,2147643949,2147059172,2148258395,2147198656,279,5,13,11360
1341556372,5805,971.3499755859375000,47.2559890747070300,671.3125000000000000,4.2548308372497560,54.0688705444335940,51,99,90,81,82,15392,2147758601,2147420242,2148005403,2147873545,2147645805,2147060982,2148260790,2147198628,3550,4,13,22475
1341559972,5808,974.4899902343750000,47.9535903930664060,673.0841064453125000,4.1962637901306150,53.9933700561523440,53,98,88,78,83,15392,2147758153,2147420562,2148005467,2147873426,2147641700,2147063131,2148267346,2147198683,808,4,13,29591
1341563572,5809,979.7100219726562000,48.4437713623046900,674.1779174804688000,4.1600890159606930,53.9360084533691400,53,98,88,80,82,15390,2147759332,2147421184,2148006546,2147875547,2147641883,2147062710,2148260297,2147198811,3465,5,13,43496
1341567172,5806,984.8699951171875000,48.7049598693847660,674.6334228515625000,4.1450181007385250,53.9080314636230500,53,102,90,81,83,15388,2147759424,2147421101,2148007140,2147878866,2147642788,2147064237,2148262546,2147198646,216,4,13,11952
1341570772,5810,983.9600219726562000,48.4381294250488300,674.1353149414062000,4.1614971160888670,53.9389610290527340,52,99,88,79,82,15393,2147757952,2147425380,2148010130,2147877833,2147643702,2147062939,2148260982,2147200164,153,5,13,55572
1341574372,5811,986.2100219726562000,47.7447319030761700,673.3474731445312000,4.1875529289245605,54.0270385742187500,53,111,87,79,82,15390,2147757604,2147421403,2148009060,2147876434,2147644278,2147064420,2148262656,2147197760,3466,4,13,3270
1341577972,5810,986.3499755859375000,47.7541198730468750,673.3983764648438000,4.1858692169189450,54.0252494812011700,53,101,88,79,83,15385,2147755648,2147422994,2148009755,2147876205,2147644306,2147058441,2148263789,2147198326,19,5,13,19499
1341581572,5809,996.1199951171875000,47.3532791137695300,672.8594970703125000,4.2036910057067870,54.0751609802246100,52,98,91,79,82,15390,2147757961,2147422098,2148007890,2147876672,2147643739,2147062848,2148258669,2147198354,336,5,13,51208
1341585172,5813,997.1400146484375000,46.6772308349609400,672.3621215820312000,4.2201390266418460,54.1620597839355500,53,97,89,79,82,15386,2147759396,2147424969,2148006948,2147875136,2147642002,2147056036,2148262235,2147203675,271,5,13,25259
1341588772,5806,998.8800048828125000,46.7591285705566400,672.7664794921875000,4.2067680358886720,54.1609001159668000,52,100,89,80,81,15385,2147759881,2147424649,2148009033,2147875702,2147642916,2147061293,2148263460,2147202477,3585,5,13,2366
1341592372,5809,994.2399902343750000,47.0276603698730500,673.2927246093750000,4.1893649101257320,54.1238899230957000,52,98,89,80,82,15370,2147759652,2147421613,2148005394,2147872603,2147642889,2147061019,2148261412,2147198765,2909,5,13,6385
1341595972,5809,993.1500244140625000,47.6907691955566400,673.9102783203125000,4.1689381599426270,54.0436286926269500,53,97,90,80,82,15376,2147756114,2147418230,2148006710,2147876370,2147644489,2147060964,2148259053,2147201526,69,5,13,35420
1341599572,5811,989.5599975585938000,47.8745384216308600,674.3405151367188000,4.1547069549560550,54.0211601257324200,52,99,87,78,82,15378,2147759771,2147419730,2148012269,2147875995,2147644105,2147066523,2148263680,2147199881,3521,4,13,25119
1341603172,5809,994.7600097656250000,47.9990501403808600,673.7479858398438000,4.1743049621582030,53.9937515258789060,53,99,93,78,82,15375,2147761773,2147419693,2148009417,2147876717,2147644754,2147060233,2148258477,2147202368,3564,4,13,63056
1341606772,5810,996.0000000000000000,47.5080986022949200,673.6248168945312000,4.1783809661865230,54.0596313476562500,53,97,90,79,83,15370,2147758372,2147420169,2148008045,2147874578,2147644050,2147063652,2148262162,2147198820,741,5,13,31853
1341610372,5808,986.5200195312500000,47.7519493103027340,674.1292724609375000,4.1616950035095215,54.0375518798828100,52,99,88,80,83,15377,2147760859,2147422052,2148010468,2147875446,2147644141,2147062500,2148263469,2147201024,3515,5,13,21826
1341613972,5812,992.5100097656250000,47.8996696472168000,675.3291015625000000,4.1219959259033200,54.0321311950683600,53,100,89,78,82,15377,2147759625,2147420004,2148007168,2147873673,2147644379,2147065627,2148259154,2147200777,49,5,13,51085
1341617572,5811,1004.6599731445312000,47.8717689514160160,673.5302124023438000,4.1815128326416020,54.0094718933105500,52,98,88,80,82,15376,2147760758,2147420928,2148007030,2147876068,2147642761,2147063250,2148260388,2147202925,514,5,13,41684
1341621172,5809,1001.3599853515625000,47.6961212158203100,673.4207763671875000,4.1851291656494140,54.0348510742187500,52,97,88,80,82,15375,2147759926,2147424100,2148008813,2147878418,2147643373,2147060900,2148255707,2147205677,9,5,13,17713
1341624772,5807,1018.5499877929688000,46.6671409606933600,671.7462768554688000,4.2404937744140625,54.1552505493164060,53,97,86,80,82,15375,2147761216,2147422418,2148007533,2147874450,2147644050,2147066340,2148259300,2147200685,2930,4,13,8186
1341628372,5807,1005.3900146484375000,45.3593406677246100,670.6638793945312000,4.2762641906738280,54.3341484069824200,53,100,88,79,83,15362,2147758299,2147419931,2148008045,2147877376,2147640841,2147061750,2148258861,2147203510,468,5,13,9377
1341631972,5810,1010.8400268554688000,45.6175498962402340,671.6837158203125000,4.2425651550292970,54.3067893981933600,52,98,91,79,83,15359,2147760347,2147420480,2148007643,2147874505,2147643026,2147063049,2148256941,2147202880,3248,4,13,23247
1341635572,5812,1006.1900024414062000,46.7109107971191400,672.6992797851562000,4.2089881896972660,54.1644401550293000,53,98,86,80,83,15357,2147758080,2147421275,2148009462,2147873508,2147640694,2147065417,2148253394,2147202029,236,5,13,31073
1341639172,5810,1001.4199829101562000,46.4687194824218750,672.3942871093750000,4.2190718650817870,54.1939201354980500,53,99,89,79,83,15357,2147762066,2147423131,2148008347,2147875547,2147647835,2147066048,2148258697,2147198162,3328,5,13,13092
1341642772,5810,1003.2600097656250000,46.7978286743164060,673.7291870117188000,4.1749310493469240,54.1646690368652340,52,99,87,79,82,15359,2147760201,2147422445,2148007378,2147874779,2147645851,2147065033,2148258953,2147199149,143,5,13,42752
1341646372,5808,997.7700195312500000,47.3102989196777340,673.9722900390625000,4.1668891906738280,54.0949096679687500,52,99,91,80,81,15357,2147760493,2147421970,2148008566,2147874322,2147644562,2147062290,2148262345,2147203830,702,4,13,32808
1341649972,5809,991.3200073242188000,47.7198791503906250,675.9677124023438000,4.1008610725402830,54.0619087219238300,53,97,90,79,82,15353,2147759076,2147423634,2148010870,2147873819,2147642459,2147063085,2148262948,2147200521,195,5,13,54378
1341653572,5810,998.2600097656250000,48.6449394226074200,676.0739746093750000,4.0973420143127440,53.9329986572265600,52,99,90,78,82,15359,2147758619,2147421293,2148008438,2147873389,2147645869,2147062134,2148260443,2147200941,326,5,13,62048
1341657172,5808,1003.5800170898438000,48.0867691040039060,674.4630737304688000,4.1506519317626950,53.9956092834472660,52,98,89,79,81,15355,2147759853,2147421403,2148008740,2147873462,2147646765,2147064301,2148261906,2147203181,2890,4,13,30934
1341660772,5810,1000.2999877929688000,48.1878395080566400,675.4409790039062000,4.1182918548583980,53.9928894042968750,52,100,92,80,82,15353,2147759378,2147421705,2148010925,2147874212,2147646381,2147060736,2148263177,2147199003,3116,5,13,58976
1341664372,5809,1000.9400024414062000,47.9799880981445300,675.5197753906250000,4.1156849861145020,54.0230903625488300,52,99,87,79,81,15357,2147759798,2147420050,2148010331,2147875794,2147639872,2147059611,2148259894,2147199616,42,5,13,17488
1341667972,5807,998.3300170898438000,47.8947906494140600,674.5460815429688000,4.1479048728942870,54.0195808410644500,53,100,92,79,83,15357,2147760137,2147420333,2148008155,2147878043,2147645403,2147064795,2148261641,2147201261,3234,5,13,12258
1341671572,5806,1009.6300048828125000,47.6423606872558600,673.5360107421875000,4.1813178062438965,54.0432510375976560,52,99,89,80,82,15358,2147761133,2147420754,2148005942,2147878427,2147643794,2147062930,2148259693,2147200054,3372,4,13,40305
1341675172,5808,1009.2399902343750000,46.6732597351074200,672.2318115234375000,4.2244467735290530,54.1636199951171900,53,99,85,79,82,15358,2147758866,2147421147,2148007515,2147877248,2147641654,2147061604,2148255067,2147199058,15,5,13,41846
1341678772,5806,1007.1099853515625000,46.3357505798339840,673.2202148437500000,4.1917629241943360,54.2219886779785160,53,100,89,79,83,15355,2147760283,2147421449,2148009645,2147876745,2147643538,2147060397,2148259803,2147200384,3478,4,13,33855
1341682372,5812,1008.9199829101562000,46.6935882568359400,673.1063842773438000,4.1955242156982420,54.1711082458496100,52,98,87,79,82,15355,2147758244,2147420790,2148007835,2147874368,2147644086,2147061933,2148256758,2147199488,464,5,13,45179
1341685972,5806,998.7100219726562000,46.8440818786621100,674.0372924804688000,4.1647381782531740,54.1594886779785160,52,98,87,78,82,15355,2147758400,2147419977,2148005568,2147875958,2147643602,2147060306,2148259547,2147201161,3490,4,13,62741
1341689572,5808,1005.1400146484375000,47.3890800476074200,674.0032958984375000,4.1658630371093750,54.0836105346679700,52,101,93,79,82,15355,2147756918,2147421202,2148007433,2147877193,2147644854,2147066029,2148260617,2147205202,90,5,13,24389
1341690656,5807,1000.0900268554688000,47.0326004028320300,674.0659790039062000,4.1637859344482420,54.1375389099121100,53,98,92,79,82,15384,2147759140,2147421458,2148007744,2147879094,2147643721,2147058130,2148257462,2147202834,676,4,13,4208
